User: anonymous   Login
Location: Unspecified
(0.0000°N, 0.0000°E)
Time: 07:47:18
(UTC+00:00)
Language:

ESSA 8 - Orbit

View from above orbital plane
View from above orbital plane
View from above satellite
View from above satellite

Ground track
Ground track

The orbit data is extracted from the following two-line orbital elements,

1  3615U 68114A   18112.94817153 -.00000022 +00000-0 +12504-3 0  9996
2  3615 101.2730 101.3757 0032068 039.9195 014.6254 12.56199477262711
Epoch (UTC): 22 April 2018 22:45:22
Eccentricity: 0.0032068
inclination: 101.2730°
perigee height: 1413 km
apogee height: 1464 km
right ascension of ascending node: 101.3757°
argument of perigee: 39.9195°
revolutions per day: 12.56199477
mean anomaly at epoch: 14.6254°
orbit number at epoch: 26271

The dashed part of the orbit path shows where the satellite is in the earth's shadow,  

DLR